Regional Weather Roundup
Issued by NWS

Home | Current Version | Previous Version | Graphics & Text | Print | Product List | Glossary On
Versions: 1 2 3 4 5 6 7 8 9 10 11 12 13 14 15 16 17 18 19 20 21 22 23 24 25 26 27 28 29 30 31 32 33 34 35 36 37 38 39 40 41 42 43 44 45 46 47 48 49 50
874
ASUS44 KMEG 231710
RWRTN
TENNESSEE HOURLY STATE WEATHER ROUNDUP
NATIONAL WEATHER SERVICE MEMPHIS TN
1200 PM CDT THU MAR 23 2017

TNZ002-004-019-021-049-052-054-088>092-231800-
WEST TENNESSEE

CITY           SKY/WX    TMP DP  RH WIND       PRES   REMARKS
MEMPHIS INTL   MOSUNNY   69  34  27 S6        30.26F
NWS MEMPHIS      N/A     69 N/A N/A MISG        N/A
JACKSON        SUNNY     65  33  30 VRB3      30.28F
DYERSBURG      MOSUNNY   59  35  40 VRB6      30.29F
SOMERVILLE     SUNNY     68  37  32 CALM      30.25S
BOLIVAR        SUNNY     66  36  32 VRB6      30.27S
PARIS          CLOUDY    43  34  70 NE9       30.33R
HUNTINGDON     CLOUDY    52  32  46 E6        30.31S
SAVANNAH       SUNNY     68  39  34 S9G16     30.28F
$$

TNZ008-025-027-028-033-062-065-066-231800-
NORTH MIDDLE TENNESSEE

CITY           SKY/WX    TMP DP  RH WIND       PRES   REMARKS
NASHVILLE      CLOUDY    55  31  39 N5        30.36S
PORTLAND       MOSUNNY   55  32  41 S8        30.35F
CLARKSVILLE    LGT RAIN  44  32  62 NE5       30.37R
SMYRNA         PTSUNNY   58  34  40 CALM      30.36F
COOKEVILLE     SUNNY     63  34  34 SE12G18   30.35R
GALLATIN       SUNNY     55  30  38 CALM      30.39R
CROSSVILLE     CLOUDY    58  29  33 SE12G17   30.38F
$$

TNZ061-075-076-078-094-096-097-231800-
SOUTH MIDDLE TENNESSEE

CITY           SKY/WX    TMP DP  RH WIND       PRES   REMARKS
FAYETTEVILLE   SUNNY     66  39  37 S13G18    30.33F
TULLAHOMA      SUNNY     63  32  31 S14       30.35F
WINCHESTER     SUNNY     64  36  34 SE14      30.35F
MCMINNVILLE    SUNNY     64  34  32 S7        30.35R
COLUMBIA       SUNNY     63  43  48 SE8       30.30F
SHELBYVILLE    SUNNY     64  43  45 S9        30.34F
$$

TNZ017-018-042-046-047-231800-
NORTHEAST TENNESSEE

CITY           SKY/WX    TMP DP  RH WIND       PRES   REMARKS
TRI CITIES     MOSUNNY   57  23  26 VRB3      30.43S
ELIZABETHTON   SUNNY     57  21  24 VRB7      30.42F
$$

TNZ012-013-036-069-073-074-231800-
CENTRAL EAST TENNESSEE

CITY           SKY/WX    TMP DP  RH WIND       PRES   REMARKS
KNOXVILLE      PTSUNNY   58  27  30 N3        30.40F
OAK RIDGE      SUNNY     61  25  25 S8        30.42F
DOWNTOWN KNOXV SUNNY     59  28  31 CALM      30.42S
GATLINBURG     SUNNY     57  28  33 NW3       30.40F
MORRISTOWN     SUNNY     59  25  27 VRB5      30.40S
JACKSBORO      SUNNY     59  27  29 VRB7G16   30.42F
$$

TNZ083-085-099-231800-
SOUTHEAST TENNESSEE

CITY           SKY/WX    TMP DP  RH WIND       PRES   REMARKS
CHATTANOOGA    PTSUNNY   63  36  36 SE15      30.40F
$$

SKY/WX REPORTED AS FAIR MEANS FEW OR NO CLOUDS BELOW
12 THOUSAND FEET.





USA.gov is the U.S. government's official web portal to all federal, state and local government web resources and services.